Погода в Кукуте

Колумбия     7°53′40″N   72°30′16″W
темп.,
°C
ветер,
м/с
пор.,
м/с
влажн.,
%
обл.,
%
осадки,
мм/ч
давл.,
гПа
погр.,
м
12 мая, ср
ср1201:00+21ю247675 0.0 1011100
04:00+22ю247292 0.0 101198
07:00+24ююз236542 0.0 1012200
10:00+30ююв374797 0.0 10121270
13:00+32ююв374011 0.0 10091660
16:00+31всв234861 0.0 10081389
19:00+24юв117759 1.3 101129
22:00+22ю237983 0.3 101363
13 мая, чт
чт1301:00+22ю247891 0.3 101297
04:00+21ю2478100 0.0 101193
07:00+24ю1269100 0.0 1013159
10:00+32ююв2634100 0.0 10121792
13:00+34в143174 0.0 10082003
16:00+30ссв335288 0.0 1008982
19:00+24юв017981 0.1 101120
22:00+22ю247310 0.0 101382
14 мая, пт
пт1401:00+21ю357024 0.0 1011128
04:00+20ю247234 0.0 101183
07:00+24ююз246076 0.0 1013211
10:00+32ю2636100 0.0 10111863
13:00+34всв24368 0.0 10082022
16:00+31ссв335013 0.1 10071100
19:00+23юв118594 0.9 101020
22:00+22ю2289100 0.1 101345
15 мая, сб
сб1501:00+22ю2386100 0.1 101160
04:00+22ю1183100 0.0 101131
07:00+24юз017276 0.0 1013153
10:00+31с134672 0.0 10121403
13:00+32св444783 0.2 10081776
16:00+30ссв236349 1.4 10081019
19:00+23юв119299 6.6 101022
22:00+22ю239399 1.4 101263
16 мая, вс
вс1601:00+21ю1292100 1.5 101143
04:00+21ю1190100 0.0 101128
07:00+24ююз1278100 0.0 1013140
10:00+29зсз1254100 0.0 1013719
13:00+33ююв2437100 0.0 10091801
16:00+31всв234736 0.2 10081147
19:00+23всв1189100 2.0 101225
22:00+22ю1187100 0.4 101333